Weather History for Sisseton, SD

Change the Weather History Date:

Monday, January 21, 2013

  Actual Average Record
Temperature  
Mean Temperature -3 °F 13 °F  
Max Temperature 4 °F 23 °F 50 °F (1942)
Min Temperature -11 °F 3 °F -31 °F (1970)
Degree Days  
Heating Degree Days 68 52  
Month to date heating degree days 1008 1092  
Since 1 July heating degree days 4383 4431  
Cooling Degree Days 0 0  
Month to date cooling degree days 0 0  
Year to date cooling degree days 0 0  
Moisture  
Dew Point -14 °F    
Average Humidity 69    
Maximum Humidity 82    
Minimum Humidity 56    
Precipitation  
Precipitation 0.00 in 0.01 in 0.47 in (1952)
Month to date precipitation 0.18 0.31  
Year to date precipitation 0.18 0.31  
Snow  
Snow 0.00 in - - ()
Month to date snowfall 1.3  
Since 1 July snowfall 10.3  
Snow Depth 0.00 in    
Sea Level Pressure  
Sea Level Pressure 30.48 in    
Wind  
Wind Speed 15 mph (NNW)    
Max Wind Speed 25 mph    
Max Gust Speed 30 mph    
T = Trace of Precipitation, MM = Missing Value Source: NWS Daily Summary

Daily Weather History Graph

Daily Weather History Graph

Search for Another Location

Airport:

Trip Planner

Search our weather history database for the weather conditions in past years. The results will help you decide how hot, cold, wet, or windy it might be!

Date:

Astronomy

Jan. 21, 2013 Rise Set
Actual Time 8:00 AM CST 5:18 PM CST
Civil Twilight 7:27 AM CST 5:51 PM CST
Nautical Twilight 6:51 AM CST 6:27 PM CST
Astronomical Twilight 6:16 AM CST 7:03 PM CST
Moon 12:58 PM CST (1/21) 3:30 AM CST (1/21)
Length of Visible Light 10h 23m
Length of Day
9h 18m
Waxing Gibbous, 75% of the Moon is Illuminated
Jan 21
Waxing Gibbous
Jan 26
Full
Feb 3
Last Quarter
Feb 10
New
Feb 17
First Quarter

Hourly Weather History & Observations

Time (CST) Temp. Windchill Dew Point Humidity Pressure Visibility Wind Dir Wind Speed Gust Speed Precip Events Conditions
12:56 AM -9.0 °F -34.2 °F -17.0 °F 68% 30.52 in - North 20.7 mph 27.6 mph N/A   Unknown
1:56 AM -9.0 °F -34.2 °F -18.0 °F 65% 30.53 in - NNW 20.7 mph - N/A   Unknown
2:56 AM -9.0 °F -32.4 °F -18.0 °F 65% 30.53 in - NNW 17.3 mph - N/A   Unknown
3:56 AM -9.9 °F -34.2 °F -18.0 °F 68% 30.53 in - NNW 18.4 mph 25.3 mph N/A   Unknown
4:56 AM -9.9 °F -34.8 °F -18.9 °F 65% 30.51 in - NNW 19.6 mph - N/A   Unknown
5:56 AM -9.9 °F -33.5 °F -18.9 °F 65% 30.51 in - NW 17.3 mph 23.0 mph N/A   Unknown
6:56 AM -9.9 °F -29.6 °F -18.9 °F 65% 30.51 in - NNW 11.5 mph - N/A   Unknown
7:56 AM -9.9 °F -32.8 °F -18.0 °F 68% 30.50 in - NNW 16.1 mph - N/A   Unknown
8:56 AM -9.0 °F -33.6 °F -17.0 °F 68% 30.52 in - NNW 19.6 mph 27.6 mph N/A   Unknown
9:56 AM -7.1 °F -32.1 °F -17.0 °F 62% 30.53 in - NNW 21.9 mph 28.8 mph N/A   Unknown
10:56 AM -5.1 °F -27.2 °F -15.0 °F 62% 30.53 in - NW 17.3 mph - N/A   Unknown
11:56 AM -2.9 °F -25.6 °F -13.0 °F 62% 30.50 in - NNW 19.6 mph - N/A   Unknown
12:56 PM -0.0 °F -20.1 °F -11.0 °F 60% 30.47 in - NW 16.1 mph 24.2 mph N/A   Unknown
1:56 PM 1.9 °F -19.2 °F -9.0 °F 60% 30.44 in - NW 19.6 mph 25.3 mph N/A   Unknown
2:56 PM 3.0 °F -17.3 °F -9.9 °F 55% 30.44 in - NNW 18.4 mph 25.3 mph N/A   Unknown
3:56 PM 3.0 °F -16.1 °F -9.0 °F 57% 30.44 in - NW 16.1 mph 25.3 mph N/A   Unknown
4:56 PM 1.9 °F -18.1 °F -9.0 °F 60% 30.43 in - NW 17.3 mph - N/A   Unknown
5:56 PM -0.0 °F -16.3 °F -9.9 °F 63% 30.44 in - NNW 10.4 mph - N/A   Unknown
6:56 PM -0.0 °F -19.4 °F -9.0 °F 66% 30.44 in - NW 15.0 mph - N/A   Unknown
7:56 PM -0.9 °F -18.3 °F -9.9 °F 66% 30.45 in - NW 11.5 mph - N/A   Unknown
8:56 PM -2.9 °F -16.5 °F -9.9 °F 72% 30.45 in - NNW 6.9 mph - N/A   Unknown
9:56 PM -5.1 °F -13.6 °F -9.9 °F 80% 30.46 in - North 3.5 mph - N/A   Unknown
10:56 PM -4.0 °F - -11.0 °F 72% 30.46 in - Calm Calm - N/A   Unknown
11:56 PM -5.1 °F -17.6 °F -11.0 °F 76% 30.46 in - NNW 5.8 mph - N/A   Unknown